Liberia, Costa Rica

3:18 PM CST on May 24, 2017 (GMT -0600)
Daniel Oduber Quiros International

Weather History for MRLB - October, 2011

Change the Weather History Date:

Thursday, October 13, 2011

  Actual Average Record
Temperature  
Mean Temperature 76 °F -  
Max Temperature 81 °F 84 °F 91 °F (2000)
Min Temperature 72 °F 73 °F 71 °F (2008)
Cooling Degree Days 12    
Growing Degree Days 26 (Base 50)    
Moisture  
Dew Point 73 °F    
Average Humidity 89    
Maximum Humidity 94    
Minimum Humidity 77    
Precipitation  
Precipitation 0.20 in - - ()
Sea Level Pressure  
Sea Level Pressure 29.83 in    
Wind  
Wind Speed 7 mph ()    
Max Wind Speed 15 mph    
Max Gust Speed -    
Visibility 5.4 miles    
Events Rain    
Averages and records for this station are not official NWS values.
T = Trace of Precipitation, MM = Missing Value Source: Averaged Metar Reports

Daily Weather History Graph

Daily Weather History Graph

Search for Another Location

Airport or City:

Trip Planner

Search our weather history database for the weather conditions in past years. The results will help you decide how hot, cold, wet, or windy it might be!

Date:

Astronomy

Oct. 13, 2011 Rise Set
Actual Time 5:30 AM CST 5:25 PM CST
Civil Twilight 5:09 AM CST 5:47 PM CST
Nautical Twilight 4:45 AM CST 6:11 PM CST
Astronomical Twilight 4:20 AM CST 6:36 PM CST
Moon 6:31 PM CST (10/13) 6:35 AM CST (10/13)
Length of Visible Light 12h 37m
Length of Day
11h 54m
Full, 98% of the Moon is Illuminated
Oct 13
Full
Oct 19
Last Quarter
Oct 26
New
Nov 2
First Quarter
Nov 10
Full

Hourly Weather History & Observations

Time (CST) Temp. Heat Index Dew Point Humidity Pressure Visibility Wind Dir Wind Speed Gust Speed Precip Events Conditions
6:00 AM 73 °F - 72 °F 94% 29.83 in 2 mi SSW 2.3 mph - - Rain Light Rain
6:00 AM 73.4 °F - 71.6 °F 94% 29.86 in 6.2 mi SSW 2.3 mph - N/A Rain Rain
7:00 AM 73.4 °F - 71.6 °F 94% 29.86 in 6.2 mi SSW 5.8 mph - N/A Rain Rain
8:00 AM 75.2 °F - 73.4 °F 94% 29.88 in 6.2 mi SW 6.9 mph - N/A Rain Light Rain
8:30 AM 75.2 °F - 73.4 °F 94% 29.88 in 1.9 mi WSW 9.2 mph - N/A Rain Rain
9:00 AM 77 °F - 74 °F 87% 29.86 in 6 mi WSW 9.2 mph - - Rain Light Rain
9:00 AM 77.0 °F - 73.4 °F 89% 29.89 in 6.2 mi WSW 9.2 mph - N/A Rain Light Rain
10:00 AM 78.8 °F - 73.4 °F 83% 29.88 in 6.2 mi West 11.5 mph - N/A Rain Light Rain
11:00 AM 80.6 °F 85.4 °F 73.4 °F 79% 29.86 in 6.2 mi West 12.7 mph - N/A Rain Light Rain
12:00 PM 80 °F - 74 °F 77% 29.84 in 6 mi West 12.7 mph - - Rain Light Rain
12:00 PM 80.6 °F 85.4 °F 73.4 °F 79% 29.84 in 6.2 mi West 12.7 mph - N/A Rain Light Rain
1:00 PM 80.6 °F 85.4 °F 73.4 °F 79% 29.82 in 6.2 mi WSW 12.7 mph - N/A Rain Light Rain
1:05 PM 75.2 °F - 71.6 °F 89% 29.82 in 3.1 mi West 15.0 mph - N/A Rain Rain
2:00 PM 77.0 °F - 73.4 °F 89% 29.80 in 5.0 mi West 12.7 mph - N/A Rain Rain
3:00 PM 76 °F - 73 °F 89% 29.77 in 6 mi West 15.0 mph - - Rain Light Rain
3:00 PM 75.2 °F - 73.4 °F 94% 29.78 in 5.6 mi West 15.0 mph - N/A Rain Rain
4:00 PM 77.0 °F - 73.4 °F 89% 29.77 in 1.9 mi West 9.2 mph - N/A Rain Rain
5:00 PM 77.0 °F - 73.4 °F 89% 29.77 in 6.2 mi WSW 5.8 mph - N/A Rain Light Rain
6:00 PM 76 °F - 73 °F 88% 29.75 in 6 mi SW 6.9 mph - - Rain Light Rain
6:00 PM 75.2 °F - 73.4 °F 94% 29.78 in 6.2 mi SW 6.9 mph - N/A Rain Light Rain
7:00 PM 75.2 °F - 73.4 °F 94% 29.81 in 6.2 mi SW 5.8 mph - N/A Rain Light Rain
8:00 PM 75.2 °F - 73.4 °F 94% 29.83 in 6.2 mi SW 4.6 mph - N/A   Scattered Clouds